This is the latest recevied weather packets stored in our database for station/object KF0JJO. If no packets are shown the sender has not sent any weather packets the latest 10 day(s).
| Time | Temp. | Humidity | Pressure | Rain* | Wind** | Luminosity | Snow |
|---|---|---|---|---|---|---|---|
| 1777224608 | 12.22° C | 70% | 1048 hPa | 0 mm | - | 311 W/m² | - |
| 1777224303 | 12.22° C | 70% | 1048 hPa | 0 mm | - | 360 W/m² | - |
| 1777223999 | 12.22° C | 70% | 1047.9 hPa | 0 mm | - | 342 W/m² | - |
| 1777223696 | 12.22° C | 70% | 1048.1 hPa | 0 mm | - | 374 W/m² | - |
| 1777223392 | 12.22° C | 71% | 1048.3 hPa | 0 mm | - | 336 W/m² | - |
| 1777223090 | 11.67° C | 71% | 1048.5 hPa | 0 mm | - | 310 W/m² | - |
| 1777222786 | 11.67° C | 72% | 1048.3 hPa | 0 mm | - | 284 W/m² | - |
| 1777222485 | 11.67° C | 71% | 1048.2 hPa | 0 mm | - | 272 W/m² | - |
| 1777222182 | 11.67° C | 72% | 1048.3 hPa | 0 mm | - | 519 W/m² | - |
| 1777221880 | 11.67° C | 72% | 1048.4 hPa | 0 mm | - | 316 W/m² | - |
| 1777221579 | 11.11° C | 74% | 1048.3 hPa | 0 mm | - | 364 W/m² | - |
| 1777221277 | 11.11° C | 76% | 1048.4 hPa | 0 mm | - | 323 W/m² | - |
| 1777220973 | 10.56° C | 76% | 1048.5 hPa | 0 mm | - | 333 W/m² | - |
| 1777220669 | 10.56° C | 76% | 1048.6 hPa | 0 mm | - | 305 W/m² | - |
| 1777220366 | 10° C | 77% | 1048.7 hPa | 0 mm | - | 245 W/m² | - |
| 1777220065 | 10° C | 77% | 1048.7 hPa | 0 mm | - | 229 W/m² | - |
| 1777219762 | 10° C | 76% | 1048.6 hPa | 0 mm | - | 240 W/m² | - |
| 1777219460 | 10° C | 77% | 1048.7 hPa | 0 mm | - | 210 W/m² | - |
| 1777219155 | 10° C | 76% | 1048.6 hPa | 0 mm | - | 266 W/m² | - |
| 1777218851 | 10° C | 78% | 1048.8 hPa | 0 mm | - | 212 W/m² | - |
| 1777218548 | 10° C | 79% | 1048.7 hPa | 0 mm | - | 207 W/m² | - |
| 1777218242 | 10° C | 79% | 1049 hPa | 0 mm | - | 219 W/m² | - |
| 1777217940 | 9.44° C | 79% | 1048.9 hPa | 0 mm | - | 200 W/m² | - |
| 1777217635 | 9.44° C | 79% | 1049 hPa | 0 mm | - | 220 W/m² | - |
| 1777217331 | 9.44° C | 80% | 1049 hPa | 0 mm | - | 226 W/m² | - |
* Rain latest hour (hover to see other rain measurements)
** Current wind speed in m/s (hover to see current wind gust speed)